Location: Newark
(46.7000°N, 60.6000°W)
Time: 03:35:20
(UTC+00:00)

A-11 Canister half - Pass Details

Date: 01 November 2020
Orbit: 1525 x 1683 km, 47.3° (Epoch: 23 November)

Event Time Altitude Azimuth Distance (km) Brightness Sun altitude
Rises 16:42:35 0° 217° (SW) 4,830 12.7 27.3°
Reaches altitude 10° 16:45:53 10° 212° (SSW) 3,824 12.6 27.1°
Maximum altitude 16:54:55 46° 143° (SE) 2,017 10.4 26.6°
Drops below altitude 10° 17:03:43 10° 74° (ENE) 3,727 10.8 26.1°
Sets 17:06:52 0° 69° (ENE) 4,699 11.2 25.9°
